{"data":{"norad_id":59196,"intl_designator":"2024-045U","name":"STARLINK-31558","alt_names":[],"object_type":"PAYLOAD","status":"ACTIVE","operator":null,"country":"US","launch_date":"2024-03-10","launch_site_code":"AFETR","launch_vehicle":null,"mission":null,"orbit_class":"UNKNOWN","rcs_meters":null,"size_class":null,"mass_kg":null,"dimensions":null,"purposes":["comms"],"wikipedia_slug":null,"has_3d_model":false,"image_url":null,"decayed_at":null,"tle_current":{"epoch":"2026-09-20T04:52:55.763616Z","epoch_age_seconds":184447,"freshness":"STALE","line1":"1 59196U 24045U   26263.20342319  .00000166  00000+0  15603-4 0  9999","line2":"2 59196  43.0119  73.6927 0004985 266.3767  93.6514 15.27574171142923","mean_motion":15.27574171,"eccentricity":0.0004985,"inclination_deg":43.0119,"raan_deg":73.6927,"arg_perigee_deg":266.3767,"mean_anomaly_deg":93.6514,"bstar":1.5603e-5,"rev_number":14292,"period_min":94.267108421801,"perigee_km":479.64624024834,"apogee_km":486.48686018791,"semimajor_km":6861.2035502181,"source":"CELESTRAK","updated_at":"2026-09-21T09:00:34.066029Z"}}}